This demonstration page uses our WeatherBlox Daily Observations layout. Learn more.

Left ArrowRight Arrow

44.89941, -97.11507

Hourly Observations for September 28, 2022

Temp ( °F °C ) Dew Point ( °F °C ) Humidity (%) Winds ( mph kmh ) Pressure ( in mb ) Visibility ( mi km ) Precip ( " mm )
12:53 am 00:53 Clear 44 6.7 28 -2.2 53 53 E 3 6 30.41 1030 10 16 0.00 0.00
1:53 am 01:53 Clear 44 6.7 28 -2.2 53 53 Calm 30.41 1030 10 16 0.00 0.00
2:53 am 02:53 Clear 43 6.1 28 -2.2 55 55 SE 5 7 30.41 1030 10 16 0.00 0.00
3:53 am 03:53 Clear 41 5 28 -2.2 60 60 ESE 6 9 30.41 1030 10 16 0.00 0.00
4:53 am 04:53 Clear 36 2.2 28 -2.2 73 73 S 6 9 30.43 1031 10 16 0.00 0.00
5:53 am 05:53 Clear 38 3.3 29 -1.7 70 70 Calm 30.44 1031 10 16 0.00 0.00
6:53 am 06:53 Clear 36 2.2 29 -1.7 75 75 SSE 5 7 30.45 1031 10 16 0.00 0.00
7:53 am 07:53 Sunny 36 2.2 29 -1.7 75 75 S 7 11 30.47 1032 10 16 0.00 0.00
8:53 am 08:53 Sunny 43 6.1 30 -1.1 60 60 SSE 10 17 30.46 1032 10 16 0.00 0.00
9:53 am 09:53 Sunny 48 8.9 31 -0.6 51 51 SSE 12 19 30.47 1032 10 16 0.00 0.00
10:53 am 10:53 Sunny 54 12.2 32 0 43 43 SSE 15 24 30.46 1032 10 16 0.00 0.00
11:53 am 11:53 Sunny 58 14.4 31 -0.6 36 36 SSE 14 22 30.45 1031 10 16 0.00 0.00
12:53 pm 12:53 Sunny 61 16.1 31 -0.6 32 32 SSE 14 22 30.42 1030 10 16 0.00 0.00
1:53 pm 13:53 Sunny 64 17.8 31 -0.6 29 29 SSE 12 19 30.40 1029 10 16 0.00 0.00
2:53 pm 14:53 Sunny 66 18.9 32 0 28 28 S 14 22 30.37 1028 10 16 0.00 0.00
3:53 pm 15:53 Sunny 66 18.9 34 1.1 30 30 SSE 14 22 30.35 1028 10 16 0.00 0.00
4:53 pm 16:53 undefined 66 18.9 34 1.1 30 30 undefined N/A 30.33 1027 10 16 0.00 0.00
8:53 pm 20:53 undefined 54 12.2 29 -1.7 38 38 SSE 12 19 30.31 1027 10 16 0.00 0.00
9:53 pm 21:53 Clear 54 12.2 28 -2.2 37 37 SSE 13 20 30.32 1027 10 16 0.00 0.00
10:53 pm 22:53 Clear 52 11.1 29 -1.7 41 41 SSE 14 22 30.32 1027 10 16 0.00 0.00
11:53 pm 23:53 Clear 52 11.1 29 -1.7 41 41 SSE 14 22 30.31 1026 10 16 0.00 0.00

Powered by AerisWeather